Tirstrup, Denmark

11:20 PM CEST on April 30, 2017 (GMT +0200)
Aarhus

Weather History for EKAH - April, 2013

Change the Weather History Date:

Monday, April 1, 2013

  Actual Average Record
Temperature  
Mean Temperature 32 °F -  
Max Temperature 44 °F 50 °F 63 °F (2017)
Min Temperature 19 °F 34 °F 19 °F (2013)
Degree Days  
Heating Degree Days 34    
Moisture  
Dew Point 17 °F    
Average Humidity 56    
Maximum Humidity 86    
Minimum Humidity 12    
Precipitation  
Precipitation 0.00 in - - ()
Sea Level Pressure  
Sea Level Pressure 29.96 in    
Wind  
Wind Speed 5 mph ()    
Max Wind Speed 10 mph    
Max Gust Speed 23 mph    
Visibility 6.4 miles    
Events      
Averages and records for this station are not official NWS values.
T = Trace of Precipitation, MM = Missing Value Source: Averaged Metar Reports

Daily Weather History Graph

Daily Weather History Graph

Search for Another Location

Airport or City:

Trip Planner

Search our weather history database for the weather conditions in past years. The results will help you decide how hot, cold, wet, or windy it might be!

Date:

Astronomy

Apr. 01, 2013 Rise Set
Actual Time 6:47 AM CEST 7:56 PM CEST
Civil Twilight 6:09 AM CEST 8:34 PM CEST
Nautical Twilight 5:22 AM CEST 9:21 PM CEST
Astronomical Twilight 4:30 AM CEST 10:14 PM CEST
Moon 1:37 AM CEST (4/1) 9:26 AM CEST (4/1)
Length of Visible Light 14h 25m
Length of Day
13h 08m
Waning Gibbous, 70% of the Moon is Illuminated
Apr 1
Waning Gibbous
Apr 3
Last Quarter
Apr 10
New
Apr 18
First Quarter
Apr 25
Full

Hourly Weather History & Observations

Time (CEST) Temp. Windchill Dew Point Humidity Pressure Visibility Wind Dir Wind Speed Gust Speed Precip Events Conditions
12:20 AM 26.6 °F - 15.8 °F 64% 29.98 in 6.2 mi NW 1.2 mph - N/A   Unknown
12:50 AM 24.8 °F 19.1 °F 17.6 °F 74% 29.98 in 6.2 mi WNW 4.6 mph - N/A   Unknown
1:20 AM 23.0 °F 18.4 °F 15.8 °F 74% 29.98 in 6.2 mi WNW 3.5 mph - N/A   Unknown
1:50 AM 24.8 °F 19.1 °F 17.6 °F 74% 29.98 in 6.2 mi WNW 4.6 mph - N/A   Unknown
2:00 AM 24 °F - 18 °F 69% 29.98 in 31 mi WNW 5.8 mph - -  
2:20 AM 24.8 °F 17.9 °F 19.4 °F 80% 29.98 in 6.2 mi NW 5.8 mph - N/A   Unknown
2:50 AM 26.6 °F 21.2 °F 21.2 °F 80% 29.95 in 6.2 mi NW 4.6 mph - N/A   Unknown
3:20 AM 26.6 °F 20.0 °F 19.4 °F 74% 29.95 in 6.2 mi NW 5.8 mph - N/A   Unknown
3:50 AM 24.8 °F 19.1 °F 19.4 °F 80% 29.95 in 6.2 mi NW 4.6 mph - N/A   Unknown
4:20 AM 23.0 °F 17.0 °F 17.6 °F 80% 29.95 in 6.2 mi WNW 4.6 mph - N/A   Unknown
4:50 AM 23.0 °F 18.4 °F 17.6 °F 80% 29.95 in 6.2 mi WNW 3.5 mph - N/A   Unknown
5:00 AM 23 °F - 18 °F 76% 29.96 in 22 mi WNW 3.5 mph - -  
5:20 AM 23.0 °F 18.4 °F 17.6 °F 80% 29.95 in 6.2 mi WNW 3.5 mph - N/A   Unknown
5:50 AM 23.0 °F 18.4 °F 17.6 °F 80% 29.95 in 6.2 mi WNW 3.5 mph - N/A   Unknown
6:20 AM 21.2 °F 13.6 °F 15.8 °F 80% 29.95 in 6.2 mi WNW 5.8 mph - N/A   Unknown
6:50 AM 19.4 °F 12.8 °F 15.8 °F 86% 29.95 in 6.2 mi WNW 4.6 mph - N/A   Unknown
7:20 AM 19.4 °F 12.8 °F 15.8 °F 86% 29.95 in 6.2 mi WNW 4.6 mph - N/A   Unknown
7:50 AM 23.0 °F 18.4 °F 17.6 °F 80% 29.95 in 6.2 mi WNW 3.5 mph - N/A   Unknown
8:00 AM 24 °F - 20 °F 79% 29.96 in 16 mi West 3.5 mph - -  
8:20 AM 26.6 °F - 23.0 °F 86% 29.95 in 6.2 mi West 2.3 mph - N/A   Unknown
8:50 AM 30.2 °F 25.4 °F 24.8 °F 80% 29.95 in 6.2 mi NNW 4.6 mph - N/A   Unknown
9:20 AM 32.0 °F 26.4 °F 26.6 °F 80% 29.95 in 6.2 mi NNW 5.8 mph - N/A   Unknown
9:50 AM 35.6 °F 29.9 °F 26.6 °F 70% 29.95 in 6.2 mi NNW 6.9 mph - N/A   Unknown
10:20 AM 37.4 °F 32.8 °F 26.6 °F 65% 29.95 in 6.2 mi North 5.8 mph - N/A   Unknown
10:50 AM 39.2 °F 34.2 °F 21.2 °F 49% 29.95 in 6.2 mi North 6.9 mph - N/A   Unknown
11:00 AM 40 °F - 21 °F 33% 29.96 in 22 mi North 5.8 mph - -  
11:20 AM 41.0 °F 37.1 °F 17.6 °F 39% 29.95 in 6.2 mi North 5.8 mph - N/A   Unknown
11:50 AM 41.0 °F 35.8 °F 15.8 °F 36% 29.95 in 6.2 mi North 8.1 mph - N/A   Unknown
12:20 PM 42.8 °F 38.0 °F 12.2 °F 29% 29.95 in 6.2 mi North 8.1 mph - N/A   Unknown
12:50 PM 42.8 °F 38.6 °F 12.2 °F 29% 29.95 in 6.2 mi NNE 6.9 mph - N/A   Unknown
1:20 PM 42.8 °F 38.0 °F 10.4 °F 27% 29.95 in 6.2 mi NNE 8.1 mph - N/A   Unknown
1:50 PM 42.8 °F 39.3 °F 8.6 °F 25% 29.95 in 6.2 mi NNE 5.8 mph - N/A   Unknown
2:00 PM 44 °F - 10 °F 13% 29.96 in 28 mi NNE 6.9 mph - -  
2:20 PM 42.8 °F 38.6 °F 8.6 °F 25% 29.95 in 6.2 mi North 6.9 mph - N/A   Unknown
2:50 PM 44.6 °F 40.7 °F 10.4 °F 25% 29.95 in 6.2 mi North 6.9 mph - N/A   Unknown
3:20 PM 44.6 °F 39.2 °F 8.6 °F 23% 29.95 in 6.2 mi North 10.4 mph - N/A   Unknown
3:50 PM 44.6 °F 40.2 °F 10.4 °F 25% 29.95 in 6.2 mi North 8.1 mph - N/A   Unknown
4:20 PM 44.6 °F 40.2 °F 8.6 °F 23% 29.95 in 6.2 mi North 8.1 mph 23.0 mph N/A   Unknown
4:50 PM 44.6 °F 39.2 °F 8.6 °F 23% 29.92 in 6.2 mi North 10.4 mph - N/A   Unknown
5:00 PM 44 °F - 9 °F 12% 29.95 in 25 mi North 8.1 mph - -  
5:20 PM 44.6 °F 40.2 °F 8.6 °F 23% 29.92 in 6.2 mi North 8.1 mph - N/A   Unknown
5:50 PM 44.6 °F 39.7 °F 14.0 °F 29% 29.92 in 6.2 mi NNE 9.2 mph - N/A   Unknown
6:20 PM 42.8 °F 38.0 °F 14.0 °F 31% 29.92 in 6.2 mi NNE 8.1 mph - N/A   Unknown
6:50 PM 42.8 °F 39.3 °F 17.6 °F 36% 29.95 in 6.2 mi North 5.8 mph - N/A   Unknown
7:20 PM 41.0 °F 37.1 °F 19.4 °F 42% 29.95 in 6.2 mi North 5.8 mph - N/A   Unknown
7:50 PM 39.2 °F 35.9 °F 21.2 °F 49% 29.95 in 6.2 mi North 4.6 mph - N/A   Unknown
8:00 PM 38 °F - 21 °F 37% 29.96 in 31 mi NNW 4.6 mph - -  
8:20 PM 35.6 °F 31.7 °F 21.2 °F 56% 29.95 in 6.2 mi North 4.6 mph - N/A   Unknown
8:50 PM 33.8 °F 29.6 °F 21.2 °F 60% 29.95 in 6.2 mi North 4.6 mph - N/A   Unknown
9:20 PM 32.0 °F 27.5 °F 21.2 °F 64% 29.95 in 6.2 mi NNW 4.6 mph - N/A   Unknown
9:50 PM 30.2 °F 26.7 °F 21.2 °F 69% 29.98 in 6.2 mi WNW 3.5 mph - N/A   Unknown
10:20 PM 28.4 °F 23.3 °F 21.2 °F 74% 29.98 in 6.2 mi WNW 4.6 mph - N/A   Unknown
10:50 PM 28.4 °F 23.3 °F 21.2 °F 74% 29.98 in 6.2 mi WNW 4.6 mph - N/A   Unknown
11:00 PM 28 °F - 21 °F 66% 29.98 in 28 mi West 3.5 mph - -  
11:20 PM 26.6 °F 21.2 °F 21.2 °F 80% 29.98 in 6.2 mi West 4.6 mph - N/A   Unknown
11:50 PM 26.6 °F 21.2 °F 21.2 °F 80% 29.98 in 6.2 mi WNW 4.6 mph - N/A   Unknown